Hourly Data Report for October 04, 2015

All times are specified in Local Standard Time (LST). Add 1 hour to adjust for Daylight Saving Time where and when it is observed.

QIKIQTARJUAQ A
NUNAVUT

67°32'48.000" N
64°01'54.000" W
5.50 m
2400577
YVM

Download Data

Hourly Data (October 2015)
Hourly Data Report for October 4, 2015
Temp Definition
°C
Dew Point Temp Definition
°C
Rel Hum Definition
%
Wind Dir Definition
10's deg

Wind Spd Definition
km/h
Visibility Definition
km
Stn Press Definition
kPa
Hmdx Definition


Wind Chill Definition


Weather Definition


TIME
00:00 Legend Double Dagger -1.7 -2.1 97 35 5 2.0 101.51   -4 Snow
01:00 Legend Double Dagger -1.8 -2.2 97 4 5 2.0 101.39   -4 Snow
02:00 Legend Double Dagger -1.1 -1.8 95 33 13 4.0 101.34   -5 Snow
03:00 Legend Double Dagger -0.9 -1.6 95 2 15 4.8 101.31   -6 Snow
04:00 Legend Double Dagger -0.8 -1.4 96 1 13 3.6 101.33   -5 Snow
05:00 Legend Double Dagger -0.6 -1.7 92 LegendMM 5 2.4 101.38   -2 Snow
06:00 Legend Double Dagger -0.5 -2.6 86 10 21 4.0 101.42   -6 Snow
07:00 Legend Double Dagger -0.6 -2.8 85 9 17 6.4 101.45   -6 Snow
08:00 Legend Double Dagger -0.9 -1.8 94 35 8 2.0 101.50   -4 Snow
09:00 Legend Double Dagger -1.1 -1.9 94 5 9 4.0 101.54   -4 Snow
10:00 Legend Double Dagger -0.9 -1.9 93 4 9 4.8 101.55   -4 Snow
11:00 Legend Double Dagger -0.8 -2.1 91 1 11 4.8 101.54   -5 Snow
12:00 Legend Double Dagger -0.8 -2.8 87 34 11 16.1 101.56   -5 Snow
13:00 Legend Double Dagger -0.7 -2.4 88 36 11 12.9 101.57   -4 Snow
14:00 Legend Double Dagger -0.8 -2.1 91 36 21 11.3 101.55   -6 Snow
15:00 Legend Double Dagger -0.1 -4.2 74 35 18 16.1 101.58   -5 LegendNANA
16:00 Legend Double Dagger -0.7 -4.6 75 34 21 16.1 101.59   -6 LegendNANA
17:00 Legend Double Dagger -0.8 -4.7 75 32 17 16.1 101.60   -6 LegendNANA
18:00 Legend Double Dagger -1.5 -5.5 75 30 9 16.1 101.58   -5 LegendNANA
19:00 Legend Double Dagger -1.1 -6.1 69 29 11 16.1 101.54   -5 LegendNANA
20:00 Legend Double Dagger -2.5 -6.6 74 26 9 16.1 101.52   -6 LegendNANA
21:00 Legend Double Dagger -3.1 -7.1 74 31 5 16.1 101.48   -5 LegendNANA
22:00 Legend Double Dagger -3.1 -7.4 72 LegendMM 4 16.1 101.43   -5 LegendNANA
23:00 Legend Double Dagger -4.1 -7.3 79 24 5 16.1 101.40   -6 LegendNANA

Notes on Data Quality.

Legend

  • E = Estimated
  • M = Missing
  • NA = Not Available
  • ‡ = Partner data that is not subject to review by the National Climate Archives
Date modified: